Torna al catalogo

CZ-6A DEB

AttivoPO
NORAD 54631·DEBRIS·🇨🇳 China

Lanciato Nov 11, 2022 da Taiyuan Satellite Launch Center

Loading…

Prossimi Passaggi (prossime 24 ore)

TLE

AggiornatoSource: Space-Track

Epoca: Sep 13, 2026, 02:58 UTC

1 54631U 22151PH  26256.12410251  .00005843  00000-0  10002-2 0  9992
2 54631  98.6235 319.9755 0071936  34.3146 326.2673 14.67527210201670

Traccia CZ-6A DEB in tempo reale con AllMySat

Download on the App Store